GW3649 Weather Reports


Display with metric or nautical units.
time (UTC)temp
F
wind
direction
speed
MPH
gust
MPH
rain 1hr
in
rain 24hr
in
rain mn
in
humidity
%
barometer
mb
20260906043006 78 135 0.0 0.0 0.00 0.00 0.00 90 1013.3
20260906042504 78 135 0.0 0.0 0.00 0.00 0.00 90 1013.3
20260906042005 78 135 0.0 1.0 0.00 0.00 0.00 90 1013.4
20260906041512 78 135 0.0 1.0 0.00 0.00 0.00 89 1013.4
20260906041006 78 135 0.0 0.0 0.00 0.00 0.00 89 1013.3
20260906040505 78 135 0.0 0.0 0.00 0.00 0.00 89 1013.3
20260906040021 78 135 0.0 0.0 0.00 0.00 0.00 89 1013.4
20260906035522 78 135 0.0 0.0 0.00 0.00 0.00 89 1013.4
20260906035010 78 135 0.0 0.0 0.00 0.00 0.00 89 1013.4
20260906034530 79 135 0.0 0.0 0.00 0.00 0.00 89 1013.4
20260906034014 79 135 0.0 0.0 0.00 0.00 0.00 88 1013.4
20260906033512 79 135 0.0 0.0 0.00 0.00 0.00 88 1013.5
20260906033004 79 135 0.0 0.0 0.00 0.00 0.00 88 1013.5
20260906032502 79 135 0.0 0.0 0.00 0.00 0.00 88 1013.5
20260906032004 79 135 0.0 0.0 0.00 0.00 0.00 88 1013.6
20260906031506 79 135 0.0 0.0 0.00 0.00 0.00 88 1013.7
20260906031002 79 135 0.0 0.0 0.00 0.00 0.00 88 1013.8
20260906030506 79 135 0.0 0.0 0.00 0.00 0.00 88 1013.8
20260906030015 79 135 0.0 0.0 0.00 0.00 0.00 88 1013.8
20260906025508 79 135 0.0 0.0 0.00 0.00 0.00 88 1013.7
20260906025010 79 135 0.0 0.0 0.00 0.00 0.00 88 1013.6
20260906024523 79 135 0.0 0.0 0.00 0.00 0.00 88 1013.7
20260906024012 79 135 0.0 0.0 0.00 0.00 0.00 88 1013.7
20260906023515 79 135 0.0 0.0 0.00 0.00 0.00 88 1013.6
20260906023025 79 135 0.0 0.0 0.00 0.00 0.00 88 1013.4
20260906022512 79 135 0.0 0.0 0.00 0.00 0.00 88 1013.4
20260906022017 80 135 0.0 0.0 0.00 0.00 0.00 88 1013.4
20260906021505 80 135 0.0 1.0 0.00 0.00 0.00 88 1013.4
20260906021006 80 135 0.0 1.0 0.00 0.00 0.00 88 1013.4
20260906020503 80 135 0.0 1.0 0.00 0.00 0.00 88 1013.5
20260906020012 80 135 0.0 1.0 0.00 0.00 0.00 88 1013.4
20260906015508 80 135 0.0 4.0 0.00 0.00 0.00 88 1013.5
20260906015005 80 135 1.0 4.0 0.00 0.00 0.00 88 1013.4
20260906014534 80 135 0.0 0.0 0.00 0.00 0.00 88 1013.2
20260906014007 80 135 0.0 0.0 0.00 0.00 0.00 88 1013.2
20260906013514 80 135 0.0 0.0 0.00 0.00 0.00 88 1013.1
20260906013025 80 135 0.0 0.0 0.00 0.00 0.00 88 1013.1
20260906012511 80 135 0.0 0.0 0.00 0.00 0.00 87 1013.0
20260906012014 80 135 0.0 0.0 0.00 0.00 0.00 87 1013.1
20260906011527 80 135 0.0 0.0 0.00 0.00 0.00 87 1013.0
20260906011016 80 135 0.0 0.0 0.00 0.00 0.00 87 1012.9
20260906010521 81 135 0.0 0.0 0.00 0.00 0.00 86 1012.9
20260906010055 81 135 0.0 0.0 0.00 0.00 0.00 86 1012.8
20260906005504 81 135 0.0 0.0 0.00 0.00 0.00 86 1012.8
20260906005007 81 135 0.0 0.0 0.00 0.00 0.00 86 1012.7
20260906004514 82 135 0.0 0.0 0.00 0.00 0.00 85 1012.8
20260906004006 82 135 0.0 0.0 0.00 0.00 0.00 84 1012.6
20260906003508 82 135 0.0 0.0 0.00 0.00 0.00 84 1012.5
20260906003020 82 135 0.0 0.0 0.00 0.00 0.00 84 1012.6
20260906002509 82 135 0.0 0.0 0.00 0.00 0.00 83 1012.7
20260906002012 83 135 0.0 0.0 0.00 0.00 0.00 83 1012.7
20260906001541 83 135 0.0 0.0 0.00 0.00 0.00 82 1012.6
20260906001015 83 135 0.0 0.0 0.00 0.00 0.00 81 1012.6
20260906000515 84 135 0.0 0.0 0.00 0.00 0.00 81 1012.7
20260906000031 84 135 0.0 0.0 0.00 0.01 0.00 80 1012.8
20260905235516 84 135 0.0 0.0 0.00 0.01 0.00 79 1012.8
20260905235020 85 135 0.0 0.0 0.00 0.01 0.00 79 1012.8
20260905234532 85 135 0.0 0.0 0.00 0.01 0.00 78 1012.8
20260905234010 85 135 0.0 0.0 0.00 0.01 0.00 78 1012.8
20260905233504 85 135 0.0 0.0 0.00 0.01 0.00 77 1012.9
20260905233016 86 135 0.0 0.0 0.00 0.01 0.00 76 1012.8
20260905232510 86 135 0.0 0.0 0.00 0.01 0.00 76 1012.8
20260905232008 86 135 0.0 0.0 0.00 0.02 0.00 76 1012.8
20260905231538 86 135 0.0 0.0 0.00 0.02 0.00 76 1012.7
20260905231012 86 135 0.0 0.0 0.00 0.03 0.00 75 1012.7
20260905230512 86 135 0.0 0.0 0.00 0.03 0.00 75 1012.7
20260905230030 86 135 0.0 0.0 0.00 0.03 0.00 74 1012.7
20260905225511 87 135 0.0 0.0 0.00 0.04 0.00 74 1012.7
20260905225016 87 135 0.0 0.0 0.00 0.04 0.00 74 1012.8
20260905224542 87 135 0.0 0.0 0.00 0.04 0.00 74 1012.8
20260905224017 87 135 0.0 1.0 0.00 0.04 0.00 74 1012.7
20260905223517 88 135 0.0 3.0 0.00 0.05 0.00 74 1012.7
20260905223038 88 135 0.0 3.0 0.00 0.05 0.00 73 1012.7
20260905222518 88 135 0.0 2.0 0.00 0.06 0.00 73 1012.7
20260905222009 88 135 0.0 2.0 0.00 0.06 0.00 73 1012.8
20260905221517 88 135 0.0 3.0 0.00 0.06 0.00 72 1012.7
20260905221011 88 135 0.0 3.0 0.00 0.06 0.00 71 1012.8
20260905220510 89 135 0.0 3.0 0.00 0.06 0.00 68 1012.8
20260905220027 89 135 1.0 6.0 0.00 0.06 0.00 64 1012.8
20260905215514 90 135 2.0 6.0 0.00 0.06 0.00 63 1012.8
20260905215015 90 135 3.0 7.0 0.00 0.06 0.00 64 1012.8
20260905214532 90 135 5.0 9.0 0.00 0.06 0.00 63 1012.8
20260905214013 90 135 3.0 9.0 0.00 0.06 0.00 63 1012.8
20260905213514 90 135 3.0 6.0 0.00 0.06 0.00 64 1012.8
20260905213032 90 135 3.0 7.0 0.00 0.06 0.00 64 1013.0
20260905212514 90 135 3.0 8.0 0.00 0.06 0.00 63 1013.0
20260905212017 90 135 3.0 8.0 0.00 0.06 0.00 64 1013.0
20260905211541 90 135 6.0 8.0 0.00 0.06 0.00 63 1013.0
20260905211019 90 135 5.0 8.0 0.00 0.06 0.00 62 1013.1
20260905210508 90 135 4.0 10.0 0.00 0.06 0.00 63 1013.2
20260905210022 91 135 6.0 10.0 0.00 0.06 0.00 63 1013.2
20260905205510 91 135 5.0 8.0 0.00 0.06 0.00 61 1013.2
20260905205013 91 135 1.0 5.0 0.00 0.06 0.00 62 1013.3
20260905204528 90 135 1.0 8.0 0.00 0.06 0.00 61 1013.4
20260905204016 90 135 4.0 8.0 0.00 0.06 0.00 62 1013.5
20260905203514 90 135 2.0 9.0 0.00 0.06 0.00 64 1013.6
20260905203045 90 135 7.0 9.0 0.00 0.06 0.00 64 1013.7
20260905202516 89 135 3.0 7.0 0.00 0.06 0.00 64 1013.7
20260905202017 90 135 1.0 7.0 0.00 0.06 0.00 63 1013.7
20260905201552 90 135 2.0 6.0 0.00 0.06 0.00 64 1013.7
20260905201017 91 135 2.0 8.0 0.00 0.06 0.00 63 1013.8
20260905200516 90 135 4.0 8.0 0.00 0.06 0.00 65 1013.8
20260905200036 90 135 5.0 8.0 0.00 0.06 0.00 63 1013.7
20260905195517 90 135 5.0 8.0 0.00 0.06 0.00 62 1013.6
20260905195016 91 135 5.0 8.0 0.00 0.06 0.00 63 1013.6
20260905194526 90 135 3.0 9.0 0.00 0.06 0.00 63 1013.7
20260905194012 90 135 4.0 9.0 0.00 0.06 0.00 65 1013.8
20260905193514 90 135 4.0 10.0 0.00 0.06 0.00 65 1013.9
20260905193034 91 135 4.0 10.0 0.00 0.06 0.00 64 1014.0
20260905192518 90 135 4.0 9.0 0.00 0.06 0.00 65 1014.0
20260905192017 90 135 6.0 9.0 0.00 0.06 0.00 64 1014.1
20260905191532 90 135 5.0 8.0 0.00 0.06 0.00 64 1014.0
20260905191016 90 135 4.0 8.0 0.00 0.06 0.00 66 1014.0
20260905190518 89 135 4.0 8.0 0.00 0.06 0.00 66 1014.1
20260905190033 89 135 4.0 9.0 0.00 0.06 0.00 66 1014.2
20260905185517 89 135 3.0 9.0 0.00 0.06 0.00 66 1014.3
20260905185014 90 135 4.0 8.0 0.00 0.06 0.00 66 1014.4
20260905184537 89 135 4.0 8.0 0.00 0.06 0.00 65 1014.6
20260905184019 89 135 5.0 12.0 0.00 0.06 0.00 67 1014.7
20260905183520 89 135 4.0 12.0 0.00 0.06 0.00 67 1014.7
20260905183034 88 135 2.0 7.0 0.00 0.06 0.00 68 1014.7
20260905182515 89 135 4.0 7.0 0.00 0.06 0.00 69 1015.0
20260905182016 88 135 2.0 7.0 0.00 0.06 0.00 69 1015.1
20260905181527 88 135 3.0 8.0 0.00 0.06 0.00 69 1015.2
20260905181014 89 135 5.0 8.0 0.00 0.06 0.00 69 1015.2
20260905180518 88 135 2.0 4.0 0.00 0.06 0.00 70 1015.1
20260905180032 87 135 3.0 7.0 0.00 0.06 0.00 70 1015.2
20260905175516 87 135 3.0 7.0 0.00 0.06 0.00 71 1015.2
20260905175003 88 135 3.0 7.0 0.00 0.06 0.00 70 1015.2
20260905174508 88 135 3.0 11.0 0.00 0.06 0.00 69 1015.1
20260905174006 88 135 3.0 11.0 0.00 0.06 0.00 70 1015.2
20260905173503 88 135 6.0 11.0 0.00 0.06 0.00 70 1015.2
20260905173008 88 135 4.0 8.0 0.00 0.06 0.00 70 1015.3
20260905172502 87 135 5.0 9.0 0.00 0.06 0.00 72 1015.5
20260905172002 88 135 5.0 9.0 0.00 0.06 0.00 70 1015.6
20260905171504 88 135 5.0 9.0 0.00 0.06 0.00 71 1015.6
20260905171003 88 135 3.0 9.0 0.00 0.06 0.00 72 1015.6
20260905170503 87 135 3.0 7.0 0.00 0.06 0.00 73 1015.7
20260905170009 87 135 1.0 5.0 0.00 0.06 0.00 76 1015.8
20260905165503 86 135 2.0 5.0 0.00 0.06 0.00 76 1015.7
20260905165005 86 135 2.0 4.0 0.00 0.06 0.00 76 1015.9
20260905164514 86 135 2.0 5.0 0.00 0.06 0.00 77 1015.9
20260905164013 85 135 0.0 6.0 0.00 0.06 0.00 78 1016.1
20260905163503 85 135 3.0 6.0 0.00 0.06 0.00 78 1016.1
20260905163014 84 135 1.0 3.0 0.00 0.06 0.00 80 1016.1
20260905162504 84 135 1.0 3.0 0.00 0.06 0.00 79 1016.2
20260905162004 84 135 1.0 3.0 0.00 0.06 0.00 81 1016.3
20260905161514 83 135 0.0 3.0 0.00 0.06 0.00 80 1016.3
20260905161017 83 135 0.0 4.0 0.00 0.06 0.00 81 1016.4
20260905160506 83 135 0.0 4.0 0.00 0.06 0.00 81 1016.4
20260905160004 83 135 1.0 3.0 0.00 0.06 0.00 82 1016.3
20260905155504 83 135 1.0 3.0 0.00 0.06 0.00 81 1016.4
20260905155003 83 135 1.0 2.0 0.00 0.06 0.00 82 1016.3
20260905154508 82 135 0.0 2.0 0.00 0.06 0.00 83 1016.4
20260905154012 82 135 0.0 2.0 0.00 0.06 0.00 83 1016.4
20260905153505 82 135 0.0 2.0 0.00 0.06 0.00 83 1016.3
20260905153018 81 135 0.0 1.0 0.00 0.06 0.00 84 1016.3
20260905152506 81 135 0.0 1.0 0.00 0.06 0.00 84 1016.3
20260905152004 81 135 0.0 1.0 0.00 0.06 0.00 84 1016.2
20260905151519 81 135 0.0 3.0 0.00 0.06 0.00 85 1016.2
20260905151007 81 135 0.0 3.0 0.00 0.06 0.00 85 1016.2
20260905150509 81 135 2.0 3.0 0.00 0.06 0.00 86 1016.2
20260905150021 80 135 1.0 2.0 0.00 0.06 0.00 88 1016.2
20260905145507 79 135 0.0 2.0 0.00 0.06 0.00 88 1016.2
20260905145008 79 135 1.0 2.0 0.00 0.06 0.00 88 1016.2
20260905144512 79 135 0.0 2.0 0.00 0.06 0.00 88 1016.3
20260905144003 79 135 0.0 2.0 0.00 0.06 0.00 89 1016.3
20260905143503 78 135 0.0 1.0 0.00 0.06 0.00 90 1016.2
20260905143013 78 135 0.0 1.0 0.00 0.06 0.00 90 1016.3
20260905142504 78 135 0.0 1.0 0.00 0.06 0.00 91 1016.3
20260905142008 78 135 0.0 1.0 0.00 0.06 0.00 92 1016.2
20260905141517 77 135 0.0 1.0 0.00 0.06 0.00 92 1016.1
20260905141011 77 135 0.0 1.0 0.00 0.06 0.00 93 1016.1
20260905140509 77 135 0.0 1.0 0.00 0.06 0.00 93 1016.1
20260905140019 76 135 0.0 1.0 0.00 0.06 0.00 93 1016.1
20260905135510 76 135 0.0 1.0 0.00 0.06 0.00 93 1016.1
20260905135008 76 135 0.0 1.0 0.00 0.06 0.00 93 1016.0
20260905134527 76 135 0.0 1.0 0.00 0.06 0.00 93 1016.0
20260905134011 76 135 0.0 1.0 0.00 0.06 0.00 93 1016.1
20260905133509 75 135 0.0 1.0 0.00 0.06 0.00 93 1016.0
20260905133008 75 135 0.0 1.0 0.00 0.06 0.00 93 1016.0
20260905132504 75 135 0.0 1.0 0.00 0.06 0.00 93 1016.0
20260905132006 75 135 0.0 1.0 0.00 0.06 0.00 93 1016.0
20260905131516 75 135 0.0 1.0 0.00 0.06 0.00 93 1015.9
20260905131016 75 135 0.0 1.0 0.00 0.06 0.00 93 1015.9
20260905130509 75 135 0.0 0.0 0.00 0.06 0.00 93 1015.8
20260905130034 75 135 0.0 0.0 0.00 0.06 0.00 93 1015.8
20260905125510 75 135 0.0 0.0 0.00 0.06 0.00 93 1015.7
20260905125008 74 135 0.0 0.0 0.00 0.06 0.00 93 1015.7
20260905124523 74 135 0.0 0.0 0.00 0.06 0.00 93 1015.7
20260905124013 74 135 0.0 0.0 0.00 0.06 0.00 93 1015.7
20260905123508 74 135 0.0 0.0 0.00 0.06 0.00 93 1015.7
20260905123024 74 135 0.0 0.0 0.00 0.06 0.00 93 1015.6
20260905122512 74 135 0.0 0.0 0.00 0.06 0.00 93 1015.6
20260905122009 74 135 0.0 0.0 0.00 0.06 0.00 93 1015.6
20260905121512 74 135 0.0 0.0 0.00 0.06 0.00 93 1015.7
20260905121008 74 135 0.0 0.0 0.00 0.06 0.00 93 1015.5
20260905120508 74 135 0.0 0.0 0.00 0.06 0.00 93 1015.5
20260905120015 74 135 0.0 0.0 0.00 0.06 0.00 93 1015.4
20260905115510 74 135 0.0 0.0 0.00 0.06 0.00 93 1015.4
20260905115011 74 135 0.0 0.0 0.00 0.06 0.00 93 1015.4
20260905114525 74 135 0.0 0.0 0.00 0.06 0.00 93 1015.4
20260905114014 74 135 0.0 0.0 0.00 0.06 0.00 93 1015.3
20260905113512 74 135 0.0 0.0 0.00 0.06 0.00 93 1015.2
20260905113026 74 135 0.0 0.0 0.00 0.06 0.00 93 1015.2
20260905112513 74 135 0.0 0.0 0.00 0.06 0.00 93 1015.2
20260905112010 74 135 0.0 0.0 0.00 0.06 0.00 93 1015.2
20260905111532 74 135 0.0 0.0 0.00 0.06 0.00 93 1015.3
20260905111015 74 135 0.0 0.0 0.00 0.06 0.00 93 1015.3
20260905110510 74 135 0.0 0.0 0.00 0.06 0.00 93 1015.3
20260905110028 74 135 0.0 0.0 0.00 0.06 0.00 93 1015.2
20260905105511 74 135 0.0 0.0 0.00 0.06 0.00 93 1015.2
20260905105006 74 135 0.0 0.0 0.00 0.06 0.00 93 1015.1
20260905104519 74 135 0.0 0.0 0.00 0.06 0.00 93 1015.0
20260905104019 74 135 0.0 0.0 0.00 0.06 0.00 93 1015.0
20260905103511 74 135 0.0 0.0 0.00 0.06 0.00 93 1015.1
20260905103027 74 135 0.0 0.0 0.00 0.06 0.00 93 1015.2
20260905102511 74 135 0.0 0.0 0.00 0.06 0.00 93 1015.3
20260905102011 74 135 0.0 0.0 0.00 0.06 0.00 93 1015.4
20260905101528 74 135 0.0 0.0 0.00 0.06 0.00 93 1015.3
20260905101012 74 135 0.0 0.0 0.00 0.06 0.00 93 1015.3
20260905100512 74 135 0.0 0.0 0.00 0.06 0.00 93 1015.2
20260905100032 74 135 0.0 0.0 0.00 0.06 0.00 93 1015.3
20260905095511 74 135 0.0 0.0 0.00 0.06 0.00 93 1015.4
20260905095013 74 135 0.0 0.0 0.00 0.06 0.00 93 1015.4
20260905094528 74 135 0.0 0.0 0.00 0.06 0.00 93 1015.5
20260905094015 74 135 0.0 0.0 0.00 0.06 0.00 93 1015.3
20260905093507 74 135 0.0 0.0 0.00 0.06 0.00 93 1015.3
20260905093023 74 135 0.0 0.0 0.00 0.06 0.00 93 1015.3
20260905092511 74 135 0.0 0.0 0.00 0.06 0.00 93 1015.3
20260905092014 74 135 0.0 0.0 0.00 0.06 0.00 93 1015.2
20260905091533 74 135 0.0 0.0 0.00 0.06 0.00 93 1015.1
20260905091016 74 135 0.0 0.0 0.00 0.06 0.00 93 1015.2
20260905090515 74 135 0.0 0.0 0.00 0.06 0.00 93 1015.2
20260905090027 74 135 0.0 0.0 0.00 0.06 0.00 93 1015.4
20260905085515 74 135 0.0 0.0 0.00 0.06 0.00 93 1015.2
20260905085003 74 135 0.0 0.0 0.00 0.06 0.00 93 1015.1
20260905084511 74 135 0.0 0.0 0.00 0.06 0.00 93 1015.1
20260905084007 74 135 0.0 0.0 0.00 0.06 0.00 93 1015.1
20260905083502 74 135 0.0 0.0 0.00 0.06 0.00 93 1015.0
20260905083006 74 135 0.0 0.0 0.00 0.06 0.00 93 1015.0
20260905082502 74 135 0.0 0.0 0.00 0.06 0.00 93 1015.0
20260905082003 74 135 0.0 0.0 0.00 0.06 0.00 93 1015.0
20260905081505 74 135 0.0 0.0 0.00 0.06 0.00 93 1014.9
20260905081002 74 135 0.0 0.0 0.00 0.06 0.00 93 1014.9
20260905080505 74 135 0.0 0.0 0.00 0.06 0.00 93 1014.9
20260905080006 74 135 0.0 0.0 0.00 0.06 0.00 93 1014.8
20260905075504 74 135 0.0 0.0 0.00 0.06 0.00 93 1014.9
20260905075003 74 135 0.0 0.0 0.00 0.06 0.00 93 1014.7
20260905074510 74 135 0.0 0.0 0.00 0.06 0.00 93 1014.7
20260905074006 74 135 0.0 0.0 0.00 0.06 0.00 93 1014.7
20260905073506 74 135 0.0 0.0 0.00 0.06 0.00 93 1014.6
20260905073017 74 135 0.0 0.0 0.00 0.06 0.00 93 1014.5
20260905072506 74 135 0.0 0.0 0.00 0.06 0.00 93 1014.5
20260905072004 74 135 0.0 0.0 0.00 0.06 0.00 93 1014.5
20260905071503 74 135 0.0 0.0 0.00 0.06 0.00 93 1014.5
20260905071006 74 135 0.0 0.0 0.00 0.06 0.00 93 1014.5
20260905070503 74 135 0.0 0.0 0.00 0.06 0.00 92 1014.5
20260905070004 74 135 0.0 0.0 0.00 0.06 0.00 92 1014.5
20260905065504 74 135 0.0 0.0 0.00 0.06 0.00 92 1014.5
20260905065002 74 135 0.0 0.0 0.00 0.06 0.00 92 1014.5
20260905064505 74 135 0.0 0.0 0.00 0.06 0.00 92 1014.5
20260905064002 74 135 0.0 0.0 0.00 0.06 0.00 92 1014.4
20260905063503 74 135 0.0 0.0 0.00 0.06 0.00 92 1014.4
20260905063016 74 135 0.0 0.0 0.00 0.06 0.00 92 1014.5
20260905062506 74 135 0.0 0.0 0.00 0.06 0.00 92 1014.5
20260905062008 74 135 0.0 0.0 0.00 0.06 0.00 92 1014.6
20260905061530 74 135 0.0 0.0 0.00 0.06 0.00 92 1014.5
20260905061009 74 135 0.0 0.0 0.00 0.06 0.00 92 1014.6
20260905060509 74 135 0.0 0.0 0.00 0.06 0.00 92 1014.6
20260905060008 74 135 0.0 0.0 0.00 0.06 0.00 92 1014.7
20260905055504 74 135 0.0 0.0 0.00 0.06 0.00 92 1014.5
20260905055003 74 135 0.0 0.0 0.00 0.06 0.00 92 1014.6
20260905054505 74 135 0.0 0.0 0.00 0.06 0.00 92 1014.7
20260905054006 74 135 0.0 0.0 0.00 0.06 0.00 92 1014.8
20260905053503 74 135 0.0 0.0 0.00 0.06 0.00 92 1014.8
20260905053006 74 135 0.0 0.0 0.00 0.06 0.00 92 1014.9
20260905052504 74 135 0.0 0.0 0.00 0.06 0.00 92 1014.9
20260905052008 74 135 0.0 0.0 0.00 0.06 0.00 92 1014.7
20260905051518 74 135 0.0 0.0 0.00 0.06 0.00 92 1014.7
20260905051007 74 135 0.0 0.0 0.00 0.06 0.00 92 1014.7
20260905050508 74 135 0.0 0.0 0.00 0.06 0.00 92 1014.7
20260905050023 74 135 0.0 0.0 0.00 0.06 0.00 92 1014.7
20260905045511 74 135 0.0 0.0 0.00 0.06 0.06 92 1014.8
20260905045011 74 135 0.0 0.0 0.00 0.06 0.06 92 1014.7
20260905044505 74 135 0.0 0.0 0.00 0.06 0.06 92 1014.7
20260905044003 74 135 0.0 0.0 0.00 0.06 0.06 92 1014.9
20260905043503 74 135 0.0 0.0 0.00 0.06 0.06 92 1014.9